When you browse on this site, cookies collect data to enhance your experience and personalize the content and advertising you see.
Visit our Privacy Policy to learn more. By continuing to use the site, you agree to this use of cookies and data.
  • In United Kingdom
  • List of Countries
  • For 7 days
  • Water Temperature
  • Weather Map
  • Weather Widgets
  • user-avatar
    Login

    Hourly Weather Roza

    Today, 21 August, Wednesday

    Time Temperature Precipitation Wind Pressure Humidity
    00:00 +18°C° 0.1 mm 2 mps 739 mmHg 87%
    01:00 +18°C° 0.1 mm 2 mps 739 mmHg 88%
    02:00 +17°C° 0.4 mm 3 mps 739 mmHg 91%
    03:00 +17°C° 0.4 mm 3 mps 739 mmHg 94%
    04:00 +17°C° 0 mm 3 mps 739 mmHg 98%
    05:00 +17°C° 0.1 mm 4 mps 740 mmHg 97%
    06:00 +18°C° 0.1 mm 4 mps 740 mmHg 96%
    07:00 +17°C° 0.1 mm 5 mps 740 mmHg 94%
    08:00 +16°C° 0.1 mm 5 mps 741 mmHg 94%
    09:00 +16°C° 0.1 mm 6 mps 741 mmHg 94%
    10:00 +15°C° 0.1 mm 6 mps 741 mmHg 93%
    11:00 +16°C° 0 mm 6 mps 742 mmHg 87%
    12:00 +19°C° 0 mm 5 mps 742 mmHg 81%
    13:00 +20°C° 0 mm 4 mps 742 mmHg 74%
    14:00 +20°C° 0 mm 5 mps 743 mmHg 71%
    15:00 +20°C° 0 mm 5 mps 743 mmHg 67%
    16:00 +20°C° 0 mm 5 mps 743 mmHg 63%
    17:00 +19°C° 0 mm 5 mps 743 mmHg 68%
    18:00 +17°C° 0 mm 4 mps 743 mmHg 74%
    19:00 +16°C° 0 mm 3 mps 743 mmHg 80%
    20:00 +14°C° 0 mm 3 mps 743 mmHg 83%
    21:00 +14°C° 0 mm 3 mps 744 mmHg 87%
    22:00 +13°C° 0 mm 3 mps 744 mmHg 91%
    23:00 +14°C° 0 mm 2 mps 744 mmHg 92%

    Tomorrow, 22 August, Thursday

    Time Temperature Precipitation Wind Pressure Humidity
    00:00 +13°C° 0 mm 2 mps 744 mmHg 92%
    01:00 +13°C° 0 mm 2 mps 743 mmHg 93%
    02:00 +13°C° 0 mm 2 mps 744 mmHg 93%
    03:00 +12°C° 0 mm 2 mps 744 mmHg 94%
    04:00 +12°C° 0 mm 2 mps 744 mmHg 94%
    05:00 +13°C° 0 mm 2 mps 744 mmHg 92%
    06:00 +13°C° 0 mm 3 mps 744 mmHg 89%
    07:00 +14°C° 0 mm 3 mps 744 mmHg 87%
    08:00 +16°C° 0 mm 3 mps 745 mmHg 80%
    09:00 +18°C° 0 mm 3 mps 745 mmHg 73%
    10:00 +19°C° 0 mm 3 mps 745 mmHg 67%
    11:00 +20°C° 0 mm 3 mps 745 mmHg 64%
    12:00 +21°C° 0 mm 3 mps 744 mmHg 61%
    13:00 +23°C° 0 mm 2 mps 744 mmHg 58%
    14:00 +23°C° 0 mm 2 mps 744 mmHg 58%
    15:00 +21°C° 0 mm 2 mps 744 mmHg 59%
    16:00 +21°C° 0 mm 2 mps 744 mmHg 60%
    17:00 +20°C° 0 mm 2 mps 744 mmHg 65%
    18:00 +20°C° 0 mm 1 mps 744 mmHg 70%
    19:00 +16°C° 0 mm 0 mps 744 mmHg 75%
    20:00 +16°C° 0 mm 1 mps 744 mmHg 77%
    21:00 +16°C° 0 mm 1 mps 744 mmHg 78%
    22:00 +15°C° 0 mm 1 mps 744 mmHg 80%
    23:00 +15°C° 0 mm 1 mps 744 mmHg 81%

    Day after tomorrow, 23 August, Friday

    Time Temperature Precipitation Wind Pressure Humidity
    00:00 +14°C° 0 mm 2 mps 744 mmHg 83%
    01:00 +14°C° 0 mm 2 mps 744 mmHg 84%
    02:00 +14°C° 0 mm 2 mps 744 mmHg 85%
    03:00 +14°C° 0 mm 2 mps 744 mmHg 87%
    04:00 +13°C° 0 mm 2 mps 744 mmHg 88%
    05:00 +14°C° 0 mm 2 mps 744 mmHg 84%
    06:00 +15°C° 0 mm 2 mps 744 mmHg 81%
    07:00 +16°C° 0 mm 2 mps 744 mmHg 77%
    08:00 +18°C° 0 mm 2 mps 744 mmHg 71%
    09:00 +20°C° 0 mm 3 mps 744 mmHg 66%
    10:00 +21°C° 0 mm 3 mps 744 mmHg 60%
    11:00 +22°C° 0 mm 3 mps 743 mmHg 58%
    12:00 +24°C° 0 mm 3 mps 743 mmHg 56%
    13:00 +25°C° 0 mm 4 mps 742 mmHg 54%
    14:00 +26°C° 0 mm 4 mps 742 mmHg 55%
    15:00 +26°C° 0 mm 4 mps 742 mmHg 57%
    16:00 +26°C° 0 mm 4 mps 742 mmHg 58%
    17:00 +25°C° 0 mm 4 mps 742 mmHg 64%
    18:00 +22°C° 0 mm 3 mps 742 mmHg 70%
    19:00 +21°C° 0 mm 3 mps 741 mmHg 75%
    20:00 +20°C° 0.4 mm 3 mps 742 mmHg 80%
    21:00 +19°C° 0.4 mm 3 mps 742 mmHg 86%
    22:00 +18°C° 0.4 mm 3 mps 742 mmHg 91%
    23:00 +17°C° 0.4 mm 3 mps 742 mmHg 91%

    24 August, Saturday

    Time Temperature Precipitation Wind Pressure Humidity
    00:00 +17°C° 0.4 mm 3 mps 742 mmHg 91%
    01:00 +16°C° 0.4 mm 3 mps 742 mmHg 91%
    02:00 +14°C° 0 mm 3 mps 742 mmHg 91%
    03:00 +14°C° 0 mm 3 mps 742 mmHg 91%
    04:00 +14°C° 0 mm 2 mps 743 mmHg 91%
    05:00 +14°C° 0 mm 2 mps 743 mmHg 89%
    06:00 +14°C° 0 mm 3 mps 743 mmHg 87%
    07:00 +16°C° 0 mm 3 mps 743 mmHg 85%
    08:00 +17°C° 0 mm 3 mps 743 mmHg 78%
    09:00 +18°C° 0 mm 3 mps 744 mmHg 71%
    10:00 +20°C° 0 mm 4 mps 744 mmHg 65%
    11:00 +20°C° 0 mm 4 mps 744 mmHg 61%
    12:00 +21°C° 0 mm 4 mps 743 mmHg 58%
    13:00 +22°C° 0 mm 4 mps 743 mmHg 54%
    14:00 +22°C° 0 mm 4 mps 743 mmHg 54%
    15:00 +22°C° 0 mm 4 mps 743 mmHg 53%
    16:00 +22°C° 0 mm 4 mps 743 mmHg 52%
    17:00 +20°C° 0 mm 4 mps 743 mmHg 57%
    18:00 +19°C° 0 mm 3 mps 743 mmHg 62%
    19:00 +17°C° 0 mm 3 mps 743 mmHg 67%
    20:00 +16°C° 0 mm 3 mps 743 mmHg 70%
    21:00 +14°C° 0 mm 3 mps 743 mmHg 72%
    22:00 +14°C° 0 mm 3 mps 744 mmHg 75%
    23:00 +13°C° 0 mm 3 mps 744 mmHg 77%

    25 August, Sunday

    Time Temperature Precipitation Wind Pressure Humidity
    00:00 +14°C° 0 mm 2 mps 744 mmHg 80%
    01:00 +13°C° 0 mm 2 mps 744 mmHg 83%
    02:00 +13°C° 0 mm 2 mps 744 mmHg 84%
    03:00 +12°C° 0 mm 2 mps 744 mmHg 86%
    04:00 +12°C° 0 mm 2 mps 744 mmHg 87%
    05:00 +13°C° 0 mm 2 mps 744 mmHg 84%
    06:00 +14°C° 0 mm 2 mps 744 mmHg 82%
    07:00 +15°C° 0 mm 2 mps 744 mmHg 79%
    08:00 +16°C° 0 mm 2 mps 744 mmHg 72%
    09:00 +18°C° 0 mm 2 mps 744 mmHg 66%
    10:00 +20°C° 0 mm 2 mps 744 mmHg 59%
    11:00 +21°C° 0 mm 3 mps 743 mmHg 56%
    12:00 +21°C° 0 mm 3 mps 743 mmHg 53%
    13:00 +22°C° 0 mm 3 mps 742 mmHg 50%
    14:00 +23°C° 0 mm 4 mps 742 mmHg 50%
    15:00 +23°C° 0 mm 4 mps 742 mmHg 51%
    16:00 +23°C° 0 mm 4 mps 741 mmHg 51%
    17:00 +21°C° 0 mm 4 mps 741 mmHg 58%
    18:00 +20°C° 0 mm 3 mps 740 mmHg 64%
    19:00 +18°C° 0 mm 3 mps 740 mmHg 71%
    20:00 +17°C° 0 mm 3 mps 740 mmHg 72%
    21:00 +17°C° 0 mm 3 mps 739 mmHg 72%
    22:00 +16°C° 0 mm 3 mps 739 mmHg 73%
    23:00 +14°C° 0 mm 3 mps 739 mmHg 74%

    26 August, Monday

    Time Temperature Precipitation Wind Pressure Humidity
    00:00 +15°C° 0 mm 2 mps 738 mmHg 76%
    01:00 +15°C° 0 mm 2 mps 738 mmHg 77%
    02:00 +15°C° 0 mm 2 mps 737 mmHg 77%
    03:00 +14°C° 0 mm 1 mps 737 mmHg 77%
    04:00 +14°C° 0 mm 1 mps 737 mmHg 77%
    05:00 +15°C° 0 mm 1 mps 736 mmHg 76%
    06:00 +15°C° 0 mm 1 mps 736 mmHg 76%
    07:00 +16°C° 0 mm 2 mps 736 mmHg 75%
    08:00 +17°C° 0 mm 2 mps 735 mmHg 72%
    09:00 +19°C° 0 mm 3 mps 735 mmHg 68%
    10:00 +20°C° 0 mm 3 mps 735 mmHg 65%
    11:00 +20°C° 0.2 mm 4 mps 735 mmHg 65%
    12:00 +19°C° 0.2 mm 4 mps 735 mmHg 65%
    13:00 +19°C° 0.2 mm 5 mps 735 mmHg 64%
    14:00 +18°C° 0.5 mm 4 mps 735 mmHg 71%
    15:00 +15°C° 0.5 mm 4 mps 734 mmHg 78%
    16:00 +14°C° 0.5 mm 3 mps 734 mmHg 85%
    17:00 +14°C° 0.2 mm 3 mps 734 mmHg 84%
    18:00 +13°C° 0.2 mm 4 mps 734 mmHg 84%
    19:00 +13°C° 0.2 mm 4 mps 734 mmHg 84%
    20:00 +12°C° 0 mm 5 mps 735 mmHg 84%
    21:00 +10°C° 0 mm 5 mps 735 mmHg 84%
    22:00 +10°C° 0 mm 6 mps 735 mmHg 84%
    23:00 +9°C° 0 mm 6 mps 735 mmHg 83%
    Show more